Time,TemperatureF,DewpointF,PressureIn,WindDirection,WindDirectionDegrees,WindSpeedMPH,WindSpeedGustMPH,Humidity,HourlyPrecipIn,Conditions,Clouds,dailyrainin,SoftwareType,DateUTC
2013-04-03 00:03:00,31.0,15.0,29.91,SSW,211,3.0,14.0,51,0.00,,,0.00,,2013-04-03 04:03:00,
2013-04-03 00:13:00,31.0,15.0,29.91,SSW,211,3.0,14.0,51,0.00,,,0.00,,2013-04-03 04:13:00,
2013-04-03 00:23:00,31.0,15.0,29.91,South,186,3.0,9.0,51,0.00,,,0.00,,2013-04-03 04:23:00,
2013-04-03 00:33:00,31.0,15.0,29.91,West,264,4.0,11.0,51,0.00,,,0.00,,2013-04-03 04:33:00,
2013-04-03 00:43:00,31.0,15.0,29.91,West,264,4.0,11.0,51,0.00,,,0.00,,2013-04-03 04:43:00,
2013-04-03 00:53:00,31.0,15.0,29.91,SE,143,2.0,13.0,52,0.00,,,0.00,,2013-04-03 04:53:00,
2013-04-03 01:03:00,31.0,15.0,29.91,SE,136,3.0,8.0,52,0.00,,,0.00,,2013-04-03 05:03:00,
2013-04-03 01:12:00,31.0,15.0,29.91,SE,136,3.0,8.0,52,0.00,,,0.00,,2013-04-03 05:12:00,
2013-04-03 01:22:00,31.0,15.0,29.92,ESE,111,1.0,7.0,51,0.00,,,0.00,,2013-04-03 05:22:00,
2013-04-03 01:32:00,31.0,15.0,29.91,North,356,2.0,12.0,51,0.00,,,0.00,,2013-04-03 05:32:00,
2013-04-03 01:42:00,31.0,15.0,29.91,North,356,2.0,12.0,51,0.00,,,0.00,,2013-04-03 05:42:00,
2013-04-03 01:53:00,30.0,15.0,29.92,WNW,302,3.0,8.0,52,0.00,,,0.00,,2013-04-03 05:53:00,
2013-04-03 02:02:00,31.0,15.0,29.92,NNW,339,4.0,8.0,52,0.00,,,0.00,,2013-04-03 06:02:00,
2013-04-03 02:12:00,31.0,15.0,29.92,NNW,339,4.0,8.0,52,0.00,,,0.00,,2013-04-03 06:12:00,
2013-04-03 02:22:00,30.0,15.0,29.92,West,262,2.0,7.0,53,0.00,,,0.00,,2013-04-03 06:22:00,
2013-04-03 02:32:00,30.0,16.0,29.92,West,274,3.0,7.0,55,0.00,,,0.00,,2013-04-03 06:32:00,
2013-04-03 02:42:00,30.0,16.0,29.92,West,274,3.0,7.0,55,0.00,,,0.00,,2013-04-03 06:42:00,
2013-04-03 02:52:00,30.0,16.0,29.93,ENE,65,1.0,6.0,55,0.00,,,0.00,,2013-04-03 06:52:00,
2013-04-03 03:02:00,30.0,16.0,29.92,SSW,203,1.0,8.0,55,0.00,,,0.00,,2013-04-03 07:02:00,
2013-04-03 03:12:00,30.0,16.0,29.92,SSW,203,1.0,8.0,55,0.00,,,0.00,,2013-04-03 07:12:00,
2013-04-03 03:23:00,30.0,15.0,29.92,ESE,117,3.0,9.0,54,0.00,,,0.00,,2013-04-03 07:23:00,
2013-04-03 03:33:00,29.0,14.0,29.92,WNW,282,2.0,9.0,54,0.00,,,0.00,,2013-04-03 07:33:00,
2013-04-03 03:42:00,29.0,14.0,29.92,WNW,282,2.0,9.0,54,0.00,,,0.00,,2013-04-03 07:42:00,
2013-04-03 03:53:00,29.0,14.0,29.92,ESE,108,3.0,9.0,54,0.00,,,0.00,,2013-04-03 07:53:00,
2013-04-03 04:03:00,29.0,13.0,29.92,West,259,2.0,11.0,51,0.00,,,0.00,,2013-04-03 08:03:00,
2013-04-03 04:12:00,29.0,13.0,29.92,West,259,2.0,11.0,51,0.00,,,0.00,,2013-04-03 08:12:00,
2013-04-03 04:22:00,29.0,13.0,29.92,SE,124,2.0,6.0,50,0.00,,,0.00,,2013-04-03 08:22:00,
2013-04-03 04:33:00,29.0,13.0,29.93,NW,319,3.0,8.0,50,0.00,,,0.00,,2013-04-03 08:33:00,
2013-04-03 04:43:00,29.0,13.0,29.93,NW,319,3.0,8.0,50,0.00,,,0.00,,2013-04-03 08:43:00,
2013-04-03 04:52:00,29.0,13.0,29.93,SE,136,2.0,6.0,51,0.00,,,0.00,,2013-04-03 08:52:00,
2013-04-03 05:02:00,29.0,13.0,29.93,WNW,301,2.0,10.0,51,0.00,,,0.00,,2013-04-03 09:02:00,
2013-04-03 05:12:00,29.0,13.0,29.93,WNW,301,2.0,10.0,51,0.00,,,0.00,,2013-04-03 09:12:00,
2013-04-03 05:22:00,28.0,12.0,29.93,WNW,297,2.0,6.0,51,0.00,,,0.00,,2013-04-03 09:22:00,
2013-04-03 05:33:00,28.0,12.0,29.93,SSE,160,2.0,11.0,51,0.00,,,0.00,,2013-04-03 09:33:00,
2013-04-03 05:43:00,28.0,12.0,29.93,SSE,160,2.0,11.0,51,0.00,,,0.00,,2013-04-03 09:43:00,
2013-04-03 05:53:00,28.0,11.0,29.94,WNW,288,2.0,6.0,49,0.00,,,0.00,,2013-04-03 09:53:00,
2013-04-03 06:03:00,28.0,12.0,29.94,WNW,301,2.0,6.0,50,0.00,,,0.00,,2013-04-03 10:03:00,
2013-04-03 06:12:00,28.0,12.0,29.94,WNW,301,2.0,6.0,50,0.00,,,0.00,,2013-04-03 10:12:00,
2013-04-03 06:22:00,28.0,12.0,29.95,West,264,2.0,8.0,50,0.00,,,0.00,,2013-04-03 10:22:00,
2013-04-03 06:33:00,28.0,11.0,29.96,NW,307,4.0,10.0,49,0.00,,,0.00,,2013-04-03 10:33:00,
2013-04-03 06:43:00,28.0,11.0,29.96,NW,307,4.0,10.0,49,0.00,,,0.00,,2013-04-03 10:43:00,
2013-04-03 06:53:00,28.0,12.0,29.96,SE,139,2.0,8.0,50,0.00,,,0.00,,2013-04-03 10:53:00,
2013-04-03 07:02:00,28.0,12.0,29.97,NW,320,1.0,8.0,50,0.00,,,0.00,,2013-04-03 11:02:00,
2013-04-03 07:12:00,28.0,12.0,29.97,NW,320,1.0,8.0,50,0.00,,,0.00,,2013-04-03 11:12:00,
2013-04-03 07:23:00,28.0,12.0,29.97,SE,132,3.0,12.0,50,0.00,,,0.00,,2013-04-03 11:23:00,
2013-04-03 07:32:00,28.0,12.0,29.97,ESE,110,2.0,9.0,50,0.00,,,0.00,,2013-04-03 11:32:00,
2013-04-03 07:42:00,28.0,12.0,29.97,ESE,110,2.0,9.0,50,0.00,,,0.00,,2013-04-03 11:42:00,
2013-04-03 07:52:00,28.0,11.0,29.97,NW,325,4.0,15.0,49,0.00,,,0.00,,2013-04-03 11:52:00,
2013-04-03 08:02:00,29.0,12.0,29.98,ESE,115,4.0,14.0,49,0.00,,,0.00,,2013-04-03 12:02:00,
2013-04-03 08:13:00,29.0,12.0,29.98,ESE,115,4.0,14.0,49,0.00,,,0.00,,2013-04-03 12:13:00,
2013-04-03 08:22:00,29.0,12.0,29.97,SE,136,3.0,13.0,49,0.00,,,0.00,,2013-04-03 12:22:00,
2013-04-03 08:33:00,30.0,12.0,29.97,WSW,254,3.0,13.0,47,0.00,,,0.00,,2013-04-03 12:33:00,
2013-04-03 08:42:00,30.0,12.0,29.97,WSW,254,3.0,13.0,47,0.00,,,0.00,,2013-04-03 12:42:00,
2013-04-03 08:52:00,30.0,12.0,29.97,WNW,302,3.0,14.0,47,0.00,,,0.00,,2013-04-03 12:52:00,
2013-04-03 09:02:00,31.0,13.0,29.97,NW,308,4.0,12.0,46,0.00,,,0.00,,2013-04-03 13:02:00,
2013-04-03 09:12:00,31.0,13.0,29.97,NW,308,4.0,12.0,46,0.00,,,0.00,,2013-04-03 13:12:00,
2013-04-03 09:22:00,32.0,13.0,29.96,NW,304,6.0,10.0,45,0.00,,,0.00,,2013-04-03 13:22:00,
2013-04-03 09:32:00,32.0,13.0,29.96,NW,318,6.0,17.0,45,0.00,,,0.00,,2013-04-03 13:32:00,
2013-04-03 09:42:00,32.0,13.0,29.96,NW,318,6.0,17.0,45,0.00,,,0.00,,2013-04-03 13:42:00,
2013-04-03 09:52:00,33.0,13.0,29.96,WNW,288,4.0,15.0,43,0.00,,,0.00,,2013-04-03 13:52:00,
2013-04-03 10:02:00,33.0,12.0,29.96,WNW,290,3.0,20.0,41,0.00,,,0.00,,2013-04-03 14:02:00,
2013-04-03 10:13:00,33.0,12.0,29.96,WNW,290,3.0,20.0,41,0.00,,,0.00,,2013-04-03 14:13:00,
2013-04-03 10:22:00,35.0,13.0,29.96,West,270,6.0,14.0,39,0.00,,,0.00,,2013-04-03 14:22:00,
2013-04-03 10:32:00,35.0,11.0,29.96,WNW,287,6.0,19.0,37,0.00,,,0.00,,2013-04-03 14:32:00,
2013-04-03 10:43:00,35.0,11.0,29.96,WNW,287,6.0,19.0,37,0.00,,,0.00,,2013-04-03 14:43:00,
2013-04-03 10:52:00,36.0,13.0,29.95,West,269,5.0,16.0,38,0.00,,,0.00,,2013-04-03 14:52:00,
2013-04-03 11:02:00,37.0,13.0,29.95,West,273,4.0,12.0,36,0.00,,,0.00,,2013-04-03 15:02:00,
2013-04-03 11:12:00,37.0,13.0,29.95,West,273,4.0,12.0,36,0.00,,,0.00,,2013-04-03 15:12:00,
2013-04-03 11:23:00,38.0,13.0,29.96,WSW,255,4.0,19.0,35,0.00,,,0.00,,2013-04-03 15:23:00,
2013-04-03 11:33:00,39.0,12.0,29.95,NNW,341,5.0,13.0,32,0.00,,,0.00,,2013-04-03 15:33:00,
2013-04-03 11:43:00,39.0,12.0,29.95,NNW,341,5.0,13.0,32,0.00,,,0.00,,2013-04-03 15:43:00,
2013-04-03 11:53:00,39.0,12.0,29.95,NW,312,4.0,14.0,32,0.00,,,0.00,,2013-04-03 15:53:00,
2013-04-03 12:03:00,39.0,12.0,29.96,NW,304,5.0,14.0,32,0.00,,,0.00,,2013-04-03 16:03:00,
2013-04-03 12:13:00,39.0,12.0,29.96,NW,304,5.0,14.0,32,0.00,,,0.00,,2013-04-03 16:13:00,
2013-04-03 12:24:00,40.0,10.0,29.96,SW,226,8.0,15.0,29,0.00,,,0.00,,2013-04-03 16:24:00,
2013-04-03 12:33:00,40.0,10.0,29.95,WNW,294,6.0,19.0,29,0.00,,,0.00,,2013-04-03 16:33:00,
2013-04-03 12:52:00,41.0,11.0,29.95,West,270,4.0,15.0,29,0.00,,,0.00,,2013-04-03 16:52:00,
2013-04-03 13:03:00,41.0,10.0,29.95,ENE,76,5.0,19.0,28,0.00,,,0.00,,2013-04-03 17:03:00,
2013-04-03 13:14:00,41.0,10.0,29.95,ENE,76,5.0,19.0,28,0.00,,,0.00,,2013-04-03 17:14:00,
2013-04-03 13:23:00,42.0,11.0,29.94,NW,305,6.0,17.0,28,0.00,,,0.00,,2013-04-03 17:23:00,
2013-04-03 13:33:00,43.0,10.0,29.94,WSW,255,6.0,18.0,26,0.00,,,0.00,,2013-04-03 17:33:00,
2013-04-03 13:46:00,43.0,10.0,29.94,WSW,255,6.0,18.0,26,0.00,,,0.00,,2013-04-03 17:46:00,
2013-04-03 13:53:00,43.0,10.0,29.95,East,91,5.0,13.0,25,0.00,,,0.00,,2013-04-03 17:53:00,
2013-04-03 14:03:00,44.0,10.0,29.95,ENE,57,6.0,17.0,24,0.00,,,0.00,,2013-04-03 18:03:00,
2013-04-03 14:13:00,44.0,10.0,29.95,ENE,57,6.0,17.0,24,0.00,,,0.00,,2013-04-03 18:13:00,
2013-04-03 14:23:00,43.0,9.0,29.95,East,87,5.0,14.0,24,0.00,,,0.00,,2013-04-03 18:23:00,
2013-04-03 14:33:00,44.0,10.0,29.95,ESE,114,5.0,14.0,24,0.00,,,0.00,,2013-04-03 18:33:00,
2013-04-03 14:43:00,44.0,10.0,29.95,ESE,114,5.0,14.0,24,0.00,,,0.00,,2013-04-03 18:43:00,
2013-04-03 14:52:00,44.0,7.0,29.94,West,270,6.0,14.0,21,0.00,,,0.00,,2013-04-03 18:52:00,
2013-04-03 15:03:00,45.0,9.0,29.94,NNW,327,4.0,18.0,23,0.00,,,0.00,,2013-04-03 19:03:00,
2013-04-03 15:13:00,45.0,9.0,29.94,NNW,327,4.0,18.0,23,0.00,,,0.00,,2013-04-03 19:13:00,
2013-04-03 15:22:00,45.0,7.0,29.94,WSW,249,6.0,19.0,21,0.00,,,0.00,,2013-04-03 19:22:00,
2013-04-03 15:32:00,45.0,9.0,29.93,North,11,5.0,18.0,23,0.00,,,0.00,,2013-04-03 19:32:00,
2013-04-03 15:42:00,45.0,9.0,29.93,North,11,5.0,18.0,23,0.00,,,0.00,,2013-04-03 19:42:00,
2013-04-03 15:52:00,46.0,8.0,29.93,NW,317,8.0,15.0,21,0.00,,,0.00,,2013-04-03 19:52:00,
2013-04-03 16:02:00,45.0,9.0,29.93,West,278,4.0,16.0,23,0.00,,,0.00,,2013-04-03 20:02:00,
2013-04-03 16:12:00,45.0,9.0,29.93,West,278,4.0,16.0,23,0.00,,,0.00,,2013-04-03 20:12:00,
2013-04-03 16:23:00,46.0,8.0,29.94,SSW,194,5.0,16.0,21,0.00,,,0.00,,2013-04-03 20:23:00,
2013-04-03 16:33:00,45.0,5.0,29.94,West,266,6.0,19.0,19,0.00,,,0.00,,2013-04-03 20:33:00,
2013-04-03 16:42:00,45.0,5.0,29.94,West,266,6.0,19.0,19,0.00,,,0.00,,2013-04-03 20:42:00,
2013-04-03 16:53:00,46.0,7.0,29.94,SW,217,4.0,12.0,20,0.00,,,0.00,,2013-04-03 20:53:00,
2013-04-03 17:02:00,46.0,7.0,29.93,WNW,288,6.0,15.0,20,0.00,,,0.00,,2013-04-03 21:02:00,
2013-04-03 17:12:00,46.0,7.0,29.93,WNW,288,6.0,15.0,20,0.00,,,0.00,,2013-04-03 21:12:00,
2013-04-03 17:22:00,46.0,9.0,29.93,WNW,283,2.0,12.0,22,0.00,,,0.00,,2013-04-03 21:22:00,
2013-04-03 17:33:00,45.0,5.0,29.94,NNW,333,7.0,17.0,19,0.00,,,0.00,,2013-04-03 21:33:00,
2013-04-03 17:42:00,45.0,5.0,29.94,NNW,333,7.0,17.0,19,0.00,,,0.00,,2013-04-03 21:42:00,
2013-04-03 17:52:00,45.0,5.0,29.94,NW,317,4.0,14.0,19,0.00,,,0.00,,2013-04-03 21:52:00,
2013-04-03 18:02:00,44.0,7.0,29.95,NW,324,5.0,14.0,21,0.00,,,0.00,,2013-04-03 22:02:00,
2013-04-03 18:13:00,44.0,7.0,29.95,NW,324,5.0,14.0,21,0.00,,,0.00,,2013-04-03 22:13:00,
2013-04-03 18:22:00,44.0,8.0,29.95,West,280,3.0,11.0,22,0.00,,,0.00,,2013-04-03 22:22:00,
2013-04-03 18:33:00,43.0,7.0,29.96,West,275,4.0,12.0,22,0.00,,,0.00,,2013-04-03 22:33:00,
2013-04-03 18:42:00,43.0,7.0,29.96,West,275,4.0,12.0,22,0.00,,,0.00,,2013-04-03 22:42:00,
2013-04-03 18:52:00,42.0,7.0,29.96,West,273,3.0,11.0,23,0.00,,,0.00,,2013-04-03 22:52:00,
2013-04-03 19:02:00,42.0,8.0,29.98,West,281,3.0,11.0,24,0.00,,,0.00,,2013-04-03 23:02:00,
2013-04-03 19:12:00,42.0,8.0,29.98,West,281,3.0,11.0,24,0.00,,,0.00,,2013-04-03 23:12:00,
2013-04-03 19:22:00,41.0,8.0,30.00,WNW,292,3.0,11.0,25,0.00,,,0.00,,2013-04-03 23:22:00,
2013-04-03 19:33:00,41.0,8.0,30.00,NW,309,4.0,14.0,25,0.00,,,0.00,,2013-04-03 23:33:00,
2013-04-03 19:43:00,41.0,8.0,30.00,NW,309,4.0,14.0,25,0.00,,,0.00,,2013-04-03 23:43:00,
2013-04-03 19:54:00,40.0,9.0,30.01,NW,311,4.0,13.0,27,0.00,,,0.00,,2013-04-03 23:54:00,
2013-04-03 20:03:00,40.0,9.0,30.01,NW,311,4.0,13.0,27,0.00,,,0.00,,2013-04-04 00:03:00,
2013-04-03 20:12:00,40.0,9.0,30.01,NW,311,4.0,13.0,27,0.00,,,0.00,,2013-04-04 00:12:00,
2013-04-03 20:22:00,39.0,9.0,30.03,NW,309,5.0,12.0,28,0.00,,,0.00,,2013-04-04 00:22:00,
2013-04-03 20:32:00,38.0,9.0,30.04,West,273,4.0,7.0,29,0.00,,,0.00,,2013-04-04 00:32:00,
2013-04-03 20:43:00,38.0,9.0,30.04,West,273,4.0,7.0,29,0.00,,,0.00,,2013-04-04 00:43:00,
2013-04-03 20:52:00,38.0,9.0,30.06,NW,321,2.0,7.0,29,0.00,,,0.00,,2013-04-04 00:52:00,
2013-04-03 21:02:00,38.0,9.0,30.06,NW,321,2.0,7.0,29,0.00,,,0.00,,2013-04-04 01:02:00,
2013-04-03 21:12:00,38.0,9.0,30.06,NW,321,2.0,7.0,29,0.00,,,0.00,,2013-04-04 01:12:00,
2013-04-03 21:22:00,37.0,10.0,30.08,WNW,283,3.0,7.0,32,0.00,,,0.00,,2013-04-04 01:22:00,
2013-04-03 21:32:00,37.0,10.0,30.09,NW,318,4.0,9.0,32,0.00,,,0.00,,2013-04-04 01:32:00,
2013-04-03 21:43:00,37.0,10.0,30.09,NW,318,4.0,9.0,32,0.00,,,0.00,,2013-04-04 01:43:00,
2013-04-03 21:53:00,36.0,11.0,30.09,WNW,294,3.0,9.0,35,0.00,,,0.00,,2013-04-04 01:53:00,
2013-04-03 22:02:00,36.0,12.0,30.10,NW,311,4.0,11.0,37,0.00,,,0.00,,2013-04-04 02:02:00,
2013-04-03 22:12:00,36.0,12.0,30.10,NW,311,4.0,11.0,37,0.00,,,0.00,,2013-04-04 02:12:00,
2013-04-03 22:22:00,36.0,13.0,30.11,WNW,291,4.0,14.0,38,0.00,,,0.00,,2013-04-04 02:22:00,
2013-04-03 22:32:00,35.0,13.0,30.11,WSW,239,4.0,10.0,40,0.00,,,0.00,,2013-04-04 02:32:00,
2013-04-03 22:42:00,35.0,13.0,30.11,WSW,239,4.0,10.0,40,0.00,,,0.00,,2013-04-04 02:42:00,
2013-04-03 22:52:00,35.0,13.0,30.11,WSW,239,4.0,10.0,40,0.00,,,0.00,,2013-04-04 02:52:00,
2013-04-03 23:02:00,34.0,14.0,30.12,WSW,248,3.0,12.0,44,0.00,,,0.00,,2013-04-04 03:02:00,
2013-04-03 23:12:00,34.0,14.0,30.12,WSW,248,3.0,12.0,44,0.00,,,0.00,,2013-04-04 03:12:00,
2013-04-03 23:22:00,34.0,15.0,30.13,West,278,2.0,7.0,45,0.00,,,0.00,,2013-04-04 03:22:00,
2013-04-03 23:33:00,34.0,15.0,30.13,WNW,295,3.0,8.0,46,0.00,,,0.00,,2013-04-04 03:33:00,
2013-04-03 23:45:00,34.0,15.0,30.13,WNW,295,3.0,8.0,46,0.00,,,0.00,,2013-04-04 03:45:00,
2013-04-03 23:53:00,33.0,15.0,30.13,WNW,290,4.0,11.0,47,0.00,,,0.00,,2013-04-04 03:53:00,